Location: ??
(35.5052°N, 139.7262°E)
Time: 02:46:23
(UTC+00:00)

Meteor 1-28 Rocket - Pass Details

Date: 20 June 2021
Orbit: 502 x 523 km, 97.4° (Epoch: 26 July)

Event Time Altitude Azimuth Distance (km) Brightness Sun altitude
Exits shadow 17:00:04 31° 122° (ESE) 933 4.4 -22.7°
Maximum altitude 17:01:20 43° 75° (ENE) 744 4.3 -22.6°
Drops below altitude 10° 17:04:57 10° 3° (N) 1,765 6.7 -22.1°
Sets 17:07:08 0° 357° (N) 2,658 7.6 -21.9°
